User: anonymous   Login
Location: Banksville Park
(38.5557°N, 75.1182°W)
Time: 10:55:24
(UTC+00:00)
Language:

Cosmos 921 Rocket - Orbit

View from above orbital plane
View from above orbital plane
View from above satellite
View from above satellite

Ground track
Ground track

The orbit data is extracted from the following two-line orbital elements,

1 10096U 77055B   20338.20386931  .00000119  00000-0  14774-4 0  9996
2 10096  75.8346 272.4017 0043368 224.6091 135.1607 14.88726481350473
Epoch (UTC): 03 December 2020 04:53:34
Eccentricity: 0.0043368
inclination: 75.8346°
perigee height: 571 km
apogee height: 632 km
right ascension of ascending node: 272.4017°
argument of perigee: 224.6091°
revolutions per day: 14.88726481
mean anomaly at epoch: 135.1607°
orbit number at epoch: 35047

The dashed part of the orbit path shows where the satellite is in the earth's shadow,  

DLR